Starlink 2319

operational
NORAD ID: 47790 Int'l Des: 2021-018 Owner: SPXS Country: US Constellation: starlink
LEOCIRCULARSTARLINK_TYPE

Über Starlink 2319

Beschreibung wird geladen...

Live-Position

3D-Globus wird geladen...

Nächste Überflüge

Höhenverlauf

Altitude vs Time

uPlot chart will show altitude changes over time

Zweizeiliger Elementsatz

1 47790U 21018D 25301.83908423 -.00002330 00000-0 -13751-3 0 9997
2 47790 53.0529 93.5204 0001434 81.0152 279.1000 15.06411646257158
Epoch: 28. Okt. 2025 • Age: 45 hours

Aktueller Status

Höhe 548.2 km
Geschwindigkeit 7.59 km/s
Subsatellitenpunkt -1.18°S, 154.3°E
Startdatum 11. März 2021
Alter 4.6 years
Typ internet

Technische Details

Klassifizierung Payload
Masse 260.00 kg
Trockenmasse 248.00 kg
Gesamtmasse 260.00 kg
Länge 0.20 m
Durchmesser 2.80 m
Spannweite 9.00 m
Form Box + pan
Hersteller SPXS
Bus-Typ Starlink
Phasenstatus In Orbit
Besitzer/Staat SPXS/US

Große Konstellationen

Loading constellations...